Year,Month,Day,Hour,Minute,Value (Times are PST for temperature in C)
2018,04,25,00,00,12.50
2018,04,25,00,01,12.50
2018,04,25,00,02,12.50
2018,04,25,00,03,12.40
2018,04,25,00,04,12.40
2018,04,25,00,05,12.40
2018,04,25,00,06,12.40
2018,04,25,00,07,12.40
2018,04,25,00,08,12.40
2018,04,25,00,09,12.40
2018,04,25,00,10,12.30
2018,04,25,00,11,12.30
2018,04,25,00,12,12.30
2018,04,25,00,13,12.20
2018,04,25,00,14,12.20
2018,04,25,00,15,12.10
2018,04,25,00,16,12.10
2018,04,25,00,17,12.10
2018,04,25,00,18,12.00
2018,04,25,00,19,12.00
2018,04,25,00,20,12.00
2018,04,25,00,21,11.90
2018,04,25,00,22,11.90
2018,04,25,00,23,11.90
2018,04,25,00,24,11.90
2018,04,25,00,25,11.90
2018,04,25,00,26,11.90
2018,04,25,00,27,11.90
2018,04,25,00,28,11.90
2018,04,25,00,29,11.90
2018,04,25,00,30,11.90
2018,04,25,00,31,11.80
2018,04,25,00,32,11.80
2018,04,25,00,33,11.80
2018,04,25,00,34,11.80
2018,04,25,00,35,11.80
2018,04,25,00,36,11.70
2018,04,25,00,37,11.70
2018,04,25,00,38,11.70
2018,04,25,00,39,11.70
2018,04,25,00,40,11.70
2018,04,25,00,41,11.70
2018,04,25,00,42,11.70
2018,04,25,00,43,11.70
2018,04,25,00,44,11.70
2018,04,25,00,45,11.70
2018,04,25,00,46,11.70
2018,04,25,00,47,11.70
2018,04,25,00,48,11.70
2018,04,25,00,49,11.70
2018,04,25,00,50,11.60
2018,04,25,00,51,11.60
2018,04,25,00,52,11.60
2018,04,25,00,53,11.60
2018,04,25,00,54,11.50
2018,04,25,00,55,11.50
2018,04,25,00,56,11.50
2018,04,25,00,57,11.40
2018,04,25,00,58,11.40
2018,04,25,00,59,11.40
2018,04,25,01,00,11.40
2018,04,25,01,01,11.40
2018,04,25,01,02,11.40
2018,04,25,01,03,11.40
2018,04,25,01,04,11.40
2018,04,25,01,05,11.40
2018,04,25,01,06,11.40
2018,04,25,01,07,11.40
2018,04,25,01,08,11.30
2018,04,25,01,09,11.30
2018,04,25,01,10,11.30
2018,04,25,01,11,11.30
2018,04,25,01,12,11.30
2018,04,25,01,13,11.30
2018,04,25,01,14,11.30
2018,04,25,01,15,11.20
2018,04,25,01,16,11.20
2018,04,25,01,17,11.20
2018,04,25,01,18,11.20
2018,04,25,01,19,11.20
2018,04,25,01,20,11.20
2018,04,25,01,21,11.10
2018,04,25,01,22,11.10
2018,04,25,01,23,11.10
2018,04,25,01,24,11.10
2018,04,25,01,25,11.00
2018,04,25,01,26,11.00
2018,04,25,01,27,11.00
2018,04,25,01,28,11.00
2018,04,25,01,29,10.90
2018,04,25,01,30,10.90
2018,04,25,01,31,10.90
2018,04,25,01,32,10.90
2018,04,25,01,33,10.90
2018,04,25,01,34,10.80
2018,04,25,01,35,10.80
2018,04,25,01,36,10.80
2018,04,25,01,37,10.80
2018,04,25,01,38,10.80
2018,04,25,01,39,10.80
2018,04,25,01,40,10.80
2018,04,25,01,41,10.80
2018,04,25,01,42,10.80
2018,04,25,01,43,10.80
2018,04,25,01,44,10.80
2018,04,25,01,45,10.80
2018,04,25,01,46,10.80
2018,04,25,01,47,10.80
2018,04,25,01,48,10.70
2018,04,25,01,49,10.70
2018,04,25,01,50,10.70
2018,04,25,01,51,10.70
2018,04,25,01,52,10.70
2018,04,25,01,53,10.70
2018,04,25,01,54,10.60
2018,04,25,01,55,10.60
2018,04,25,01,56,10.60
2018,04,25,01,57,10.60
2018,04,25,01,58,10.50
2018,04,25,01,59,10.50
2018,04,25,02,00,10.40
2018,04,25,02,01,10.40
2018,04,25,02,02,10.40
2018,04,25,02,03,10.40
2018,04,25,02,04,10.30
2018,04,25,02,05,10.30
2018,04,25,02,06,10.30
2018,04,25,02,07,10.30
2018,04,25,02,08,10.30
2018,04,25,02,09,10.30
2018,04,25,02,10,10.30
2018,04,25,02,11,10.30
2018,04,25,02,12,10.30
2018,04,25,02,13,10.30
2018,04,25,02,14,10.30
2018,04,25,02,15,10.30
2018,04,25,02,16,10.30
2018,04,25,02,17,10.40
2018,04,25,02,18,10.40
2018,04,25,02,19,10.40
2018,04,25,02,20,10.40
2018,04,25,02,21,10.40
2018,04,25,02,22,10.40
2018,04,25,02,23,10.40
2018,04,25,02,24,10.40
2018,04,25,02,25,10.50
2018,04,25,02,26,10.50
2018,04,25,02,27,10.50
2018,04,25,02,28,10.50
2018,04,25,02,29,10.50
2018,04,25,02,30,10.50
2018,04,25,02,31,10.50
2018,04,25,02,32,10.50
2018,04,25,02,33,10.60
2018,04,25,02,34,10.60
2018,04,25,02,35,10.60
2018,04,25,02,36,10.60
2018,04,25,02,37,10.60
2018,04,25,02,38,10.60
2018,04,25,02,39,10.60
2018,04,25,02,40,10.60
2018,04,25,02,41,10.60
2018,04,25,02,42,10.50
2018,04,25,02,43,10.50
2018,04,25,02,44,10.50
2018,04,25,02,45,10.50
2018,04,25,02,46,10.40
2018,04,25,02,47,10.40
2018,04,25,02,48,10.40
2018,04,25,02,49,10.40
2018,04,25,02,50,10.30
2018,04,25,02,51,10.30
2018,04,25,02,52,10.30
2018,04,25,02,53,10.30
2018,04,25,02,54,10.30
2018,04,25,02,55,10.30
2018,04,25,02,56,10.30
2018,04,25,02,57,10.30
2018,04,25,02,58,10.30
2018,04,25,02,59,10.30
2018,04,25,03,00,10.30
2018,04,25,03,01,10.20
2018,04,25,03,02,10.20
2018,04,25,03,03,10.20
2018,04,25,03,04,10.20
2018,04,25,03,05,10.20
2018,04,25,03,06,10.10
2018,04,25,03,07,10.10
2018,04,25,03,08,10.10
2018,04,25,03,09,10.10
2018,04,25,03,10,10.10
2018,04,25,03,11,10.10
2018,04,25,03,12,10.10
2018,04,25,03,13,10.10
2018,04,25,03,14,10.10
2018,04,25,03,15,10.10
2018,04,25,03,16,10.10
2018,04,25,03,17,10.20
2018,04,25,03,18,10.20
2018,04,25,03,19,10.20
2018,04,25,03,20,10.20
2018,04,25,03,21,10.20
2018,04,25,03,22,10.20
2018,04,25,03,23,10.20
2018,04,25,03,24,10.20
2018,04,25,03,25,10.20
2018,04,25,03,26,10.20
2018,04,25,03,27,10.20
2018,04,25,03,28,10.20
2018,04,25,03,29,10.20
2018,04,25,03,30,10.20
2018,04,25,03,31,10.20
2018,04,25,03,32,10.20
2018,04,25,03,33,10.20
2018,04,25,03,34,10.20
2018,04,25,03,35,10.20
2018,04,25,03,36,10.20
2018,04,25,03,37,10.20
2018,04,25,03,38,10.10
2018,04,25,03,39,10.10
2018,04,25,03,40,10.10
2018,04,25,03,41,10.10
2018,04,25,03,42,10.10
2018,04,25,03,43,10.10
2018,04,25,03,44,10.00
2018,04,25,03,45,10.00
2018,04,25,03,46,9.90
2018,04,25,03,47,9.90
2018,04,25,03,48,9.90
2018,04,25,03,49,9.90
2018,04,25,03,50,9.80
2018,04,25,03,51,9.80
2018,04,25,03,52,9.80
2018,04,25,03,53,9.70
2018,04,25,03,54,9.70
2018,04,25,03,55,9.70
2018,04,25,03,56,9.70
2018,04,25,03,57,9.70
2018,04,25,03,58,9.60
2018,04,25,03,59,9.60
2018,04,25,04,00,9.60
2018,04,25,04,01,9.60
2018,04,25,04,02,9.60
2018,04,25,04,03,9.60
2018,04,25,04,04,9.50
2018,04,25,04,05,9.50
2018,04,25,04,06,9.50
2018,04,25,04,07,9.40
2018,04,25,04,08,9.40
2018,04,25,04,09,9.40
2018,04,25,04,10,9.40
2018,04,25,04,11,9.30
2018,04,25,04,12,9.30
2018,04,25,04,13,9.30
2018,04,25,04,14,9.30
2018,04,25,04,15,9.30
2018,04,25,04,16,9.30
2018,04,25,04,17,9.30
2018,04,25,04,18,9.20
2018,04,25,04,19,9.20
2018,04,25,04,20,9.20
2018,04,25,04,21,9.20
2018,04,25,04,22,9.20
2018,04,25,04,23,9.10
2018,04,25,04,24,9.10
2018,04,25,04,25,9.10
2018,04,25,04,26,9.10
2018,04,25,04,27,9.10
2018,04,25,04,28,9.00
2018,04,25,04,29,9.00
2018,04,25,04,30,9.00
2018,04,25,04,31,9.00
2018,04,25,04,32,8.90
2018,04,25,04,33,8.90
2018,04,25,04,34,8.90
2018,04,25,04,35,8.90
2018,04,25,04,36,8.90
2018,04,25,04,37,8.90
2018,04,25,04,38,8.90
2018,04,25,04,39,8.90
2018,04,25,04,40,8.90
2018,04,25,04,41,8.90
2018,04,25,04,42,8.90
2018,04,25,04,43,8.90
2018,04,25,04,44,8.90
2018,04,25,04,45,8.90
2018,04,25,04,46,8.90
2018,04,25,04,47,8.90
2018,04,25,04,48,8.90
2018,04,25,04,49,8.90
2018,04,25,04,50,8.90
2018,04,25,04,51,8.80
2018,04,25,04,52,8.80
2018,04,25,04,53,8.80
2018,04,25,04,54,8.80
2018,04,25,04,55,8.80
2018,04,25,04,56,8.80
2018,04,25,04,57,8.80
2018,04,25,04,58,8.70
2018,04,25,04,59,8.70
2018,04,25,05,00,8.70
2018,04,25,05,01,8.70
2018,04,25,05,02,8.70
2018,04,25,05,03,8.70
2018,04,25,05,04,8.70
2018,04,25,05,05,8.70
2018,04,25,05,06,8.70
2018,04,25,05,07,8.80
2018,04,25,05,08,8.80
2018,04,25,05,09,8.80
2018,04,25,05,10,8.80
2018,04,25,05,11,8.80
2018,04,25,05,12,8.80
2018,04,25,05,13,8.80
2018,04,25,05,14,8.80
2018,04,25,05,15,8.80
2018,04,25,05,16,8.80
2018,04,25,05,17,8.80
2018,04,25,05,18,8.80
2018,04,25,05,19,8.80
2018,04,25,05,20,8.80
2018,04,25,05,21,8.80
2018,04,25,05,22,8.80
2018,04,25,05,23,8.80
2018,04,25,05,24,8.70
2018,04,25,05,25,8.70
2018,04,25,05,26,8.70
2018,04,25,05,27,8.70
2018,04,25,05,28,8.70
2018,04,25,05,29,8.70
2018,04,25,05,30,8.70
2018,04,25,05,31,8.70
2018,04,25,05,32,8.70
2018,04,25,05,33,8.70
2018,04,25,05,34,8.70
2018,04,25,05,35,8.70
2018,04,25,05,36,8.60
2018,04,25,05,37,8.60
2018,04,25,05,38,8.60
2018,04,25,05,39,8.60
2018,04,25,05,40,8.60
2018,04,25,05,41,8.60
2018,04,25,05,42,8.50
2018,04,25,05,43,8.50
2018,04,25,05,44,8.50
2018,04,25,05,45,8.50
2018,04,25,05,46,8.40
2018,04,25,05,47,8.40
2018,04,25,05,48,8.40
2018,04,25,05,49,8.40
2018,04,25,05,50,8.30
2018,04,25,05,51,8.30
2018,04,25,05,52,8.30
2018,04,25,05,53,8.30
2018,04,25,05,54,8.30
2018,04,25,05,55,8.30
2018,04,25,05,56,8.30
2018,04,25,05,57,8.30
2018,04,25,05,58,8.30
2018,04,25,05,59,8.30
2018,04,25,06,00,8.30
2018,04,25,06,01,8.30
2018,04,25,06,02,8.30
2018,04,25,06,03,8.30
2018,04,25,06,04,8.30
2018,04,25,06,05,8.30
2018,04,25,06,06,8.30
2018,04,25,06,07,8.30
2018,04,25,06,08,8.30
2018,04,25,06,09,8.30
2018,04,25,06,10,8.40
2018,04,25,06,11,8.40
2018,04,25,06,12,8.40
2018,04,25,06,13,8.40
2018,04,25,06,14,8.50
2018,04,25,06,15,8.50
2018,04,25,06,16,8.50
2018,04,25,06,17,8.50
2018,04,25,06,18,8.50
2018,04,25,06,19,8.50
2018,04,25,06,20,8.50
2018,04,25,06,21,8.50
2018,04,25,06,22,8.50
2018,04,25,06,23,8.50
2018,04,25,06,24,8.50
2018,04,25,06,25,8.50
2018,04,25,06,26,8.50
2018,04,25,06,27,8.50
2018,04,25,06,28,8.60
2018,04,25,06,29,8.60
2018,04,25,06,30,8.60
2018,04,25,06,31,8.70
2018,04,25,06,32,8.70
2018,04,25,06,33,8.70
2018,04,25,06,34,8.70
2018,04,25,06,35,8.70
2018,04,25,06,36,8.70
2018,04,25,06,37,8.70
2018,04,25,06,38,8.70
2018,04,25,06,39,8.70
2018,04,25,06,40,8.70
2018,04,25,06,41,8.70
2018,04,25,06,42,8.70
2018,04,25,06,43,8.70
2018,04,25,06,44,8.70
2018,04,25,06,45,8.70
2018,04,25,06,46,8.60
2018,04,25,06,47,8.60
2018,04,25,06,48,8.60
2018,04,25,06,49,8.50
2018,04,25,06,50,8.50
2018,04,25,06,51,8.50
2018,04,25,06,52,8.50
2018,04,25,06,53,8.40
2018,04,25,06,54,8.40
2018,04,25,06,55,8.40
2018,04,25,06,56,8.40
2018,04,25,06,57,8.40
2018,04,25,06,58,8.40
2018,04,25,06,59,8.40
2018,04,25,07,00,8.40
2018,04,25,07,01,8.50
2018,04,25,07,02,8.50
2018,04,25,07,03,8.50
2018,04,25,07,04,8.60
2018,04,25,07,05,8.60
2018,04,25,07,06,8.60
2018,04,25,07,07,8.60
2018,04,25,07,08,8.70
2018,04,25,07,09,8.70
2018,04,25,07,10,8.80
2018,04,25,07,11,8.80
2018,04,25,07,12,8.90
2018,04,25,07,13,8.90
2018,04,25,07,14,9.00
2018,04,25,07,15,9.10
2018,04,25,07,16,9.10
2018,04,25,07,17,9.20
2018,04,25,07,18,9.20
2018,04,25,07,19,9.20
2018,04,25,07,20,9.30
2018,04,25,07,21,9.30
2018,04,25,07,22,9.40
2018,04,25,07,23,9.40
2018,04,25,07,24,9.40
2018,04,25,07,25,9.50
2018,04,25,07,26,9.50
2018,04,25,07,27,9.50
2018,04,25,07,28,9.60
2018,04,25,07,29,9.60
2018,04,25,07,30,9.60
2018,04,25,07,31,9.70
2018,04,25,07,32,9.70
2018,04,25,07,33,9.70
2018,04,25,07,34,9.70
2018,04,25,07,35,9.80
2018,04,25,07,36,9.80
2018,04,25,07,37,9.80
2018,04,25,07,38,9.80
2018,04,25,07,39,9.90
2018,04,25,07,40,9.90
2018,04,25,07,41,10.00
2018,04,25,07,42,10.00
2018,04,25,07,43,10.10
2018,04,25,07,44,10.10
2018,04,25,07,45,10.10
2018,04,25,07,46,10.20
2018,04,25,07,47,10.20
2018,04,25,07,48,10.30
2018,04,25,07,49,10.30
2018,04,25,07,50,10.30
2018,04,25,07,51,10.40
2018,04,25,07,52,10.40
2018,04,25,07,53,10.50
2018,04,25,07,54,10.50
2018,04,25,07,55,10.60
2018,04,25,07,56,10.60
2018,04,25,07,57,10.70
2018,04,25,07,58,10.70
2018,04,25,07,59,10.70
2018,04,25,08,00,10.70
2018,04,25,08,01,10.80
2018,04,25,08,02,10.80
2018,04,25,08,03,10.80
2018,04,25,08,04,10.80
2018,04,25,08,05,10.90
2018,04,25,08,06,10.90
2018,04,25,08,07,10.90
2018,04,25,08,08,10.90
2018,04,25,08,09,11.00
2018,04,25,08,10,11.00
2018,04,25,08,11,11.00
2018,04,25,08,12,11.00
2018,04,25,08,13,11.10
2018,04,25,08,14,11.10
2018,04,25,08,15,11.10
2018,04,25,08,16,11.10
2018,04,25,08,17,11.20
2018,04,25,08,18,11.20
2018,04,25,08,19,11.20
2018,04,25,08,20,11.20
2018,04,25,08,21,11.30
2018,04,25,08,22,11.30
2018,04,25,08,23,11.30
2018,04,25,08,24,11.30
2018,04,25,08,25,11.30
2018,04,25,08,26,11.40
2018,04,25,08,27,11.40
2018,04,25,08,28,11.40
2018,04,25,08,29,11.40
2018,04,25,08,30,11.40
2018,04,25,08,31,11.50
2018,04,25,08,32,11.50
2018,04,25,08,33,11.50
2018,04,25,08,34,11.60
2018,04,25,08,35,11.60
2018,04,25,08,36,11.60
2018,04,25,08,37,11.60
2018,04,25,08,38,11.60
2018,04,25,08,39,11.70
2018,04,25,08,40,11.80
2018,04,25,08,41,11.80
2018,04,25,08,42,11.80
2018,04,25,08,43,11.90
2018,04,25,08,44,11.90
2018,04,25,08,45,12.00
2018,04,25,08,46,12.00
2018,04,25,08,47,12.10
2018,04,25,08,48,12.10
2018,04,25,08,49,12.20
2018,04,25,08,50,12.30
2018,04,25,08,51,12.30
2018,04,25,08,52,12.40
2018,04,25,08,53,12.40
2018,04,25,08,54,12.50
2018,04,25,08,55,12.60
2018,04,25,08,56,12.60
2018,04,25,08,57,12.60
2018,04,25,08,58,12.70
2018,04,25,08,59,12.70
2018,04,25,09,00,12.70
2018,04,25,09,01,12.80
2018,04,25,09,02,12.80
2018,04,25,09,03,12.90
2018,04,25,09,04,13.00
2018,04,25,09,05,13.00
2018,04,25,09,06,13.00
2018,04,25,09,07,13.10
2018,04,25,09,08,13.10
2018,04,25,09,09,13.20
2018,04,25,09,10,13.20
2018,04,25,09,11,13.20
2018,04,25,09,12,13.30
2018,04,25,09,13,13.30
2018,04,25,09,14,13.30
2018,04,25,09,15,13.40
2018,04,25,09,16,13.40
2018,04,25,09,17,13.50
2018,04,25,09,18,13.60
2018,04,25,09,19,13.70
2018,04,25,09,20,13.80
2018,04,25,09,21,13.80
2018,04,25,09,22,13.80
2018,04,25,09,23,13.80
2018,04,25,09,24,13.80
2018,04,25,09,25,13.80
2018,04,25,09,26,13.90
2018,04,25,09,27,13.90
2018,04,25,09,28,13.90
2018,04,25,09,29,14.00
2018,04,25,09,30,14.00
2018,04,25,09,31,14.10
2018,04,25,09,32,14.10
2018,04,25,09,33,14.20
2018,04,25,09,34,14.20
2018,04,25,09,35,14.30
2018,04,25,09,36,14.30
2018,04,25,09,37,14.30
2018,04,25,09,38,14.40
2018,04,25,09,39,14.50
2018,04,25,09,40,14.60
2018,04,25,09,41,14.70
2018,04,25,09,42,14.80
2018,04,25,09,43,14.90
2018,04,25,09,44,15.00
2018,04,25,09,45,15.00
2018,04,25,09,46,15.20
2018,04,25,09,47,15.20
2018,04,25,09,48,15.20
2018,04,25,09,49,15.20
2018,04,25,09,50,15.30
2018,04,25,09,51,15.30
2018,04,25,09,52,15.40
2018,04,25,09,53,15.50
2018,04,25,09,54,15.50
2018,04,25,09,55,15.50
2018,04,25,09,56,15.60
2018,04,25,09,57,15.60
2018,04,25,09,58,15.60
2018,04,25,09,59,15.70
2018,04,25,10,00,15.70
2018,04,25,10,01,15.80
2018,04,25,10,02,15.80
2018,04,25,10,03,15.90
2018,04,25,10,04,15.90
2018,04,25,10,05,16.00
2018,04,25,10,06,16.10
2018,04,25,10,07,16.20
2018,04,25,10,08,16.20
2018,04,25,10,09,16.20
2018,04,25,10,10,16.30
2018,04,25,10,11,16.30
2018,04,25,10,12,16.30
2018,04,25,10,13,16.30
2018,04,25,10,14,16.30
2018,04,25,10,15,16.30
2018,04,25,10,16,16.30
2018,04,25,10,17,16.20
2018,04,25,10,18,16.20
2018,04,25,10,19,16.20
2018,04,25,10,20,16.20
2018,04,25,10,21,16.20
2018,04,25,10,22,16.20
2018,04,25,10,23,16.20
2018,04,25,10,24,16.20
2018,04,25,10,25,16.20
2018,04,25,10,26,16.30
2018,04,25,10,27,16.30
2018,04,25,10,28,16.30
2018,04,25,10,29,16.40
2018,04,25,10,30,16.40
2018,04,25,10,31,16.50
2018,04,25,10,32,16.60
2018,04,25,10,33,16.60
2018,04,25,10,34,16.60
2018,04,25,10,35,16.50
2018,04,25,10,36,16.50
2018,04,25,10,37,16.50
2018,04,25,10,38,16.50
2018,04,25,10,39,16.50
2018,04,25,10,40,16.50
2018,04,25,10,41,16.60
2018,04,25,10,42,16.60
2018,04,25,10,43,16.60
2018,04,25,10,44,16.70
2018,04,25,10,45,16.80
2018,04,25,10,46,16.90
2018,04,25,10,47,16.90
2018,04,25,10,48,17.00
2018,04,25,10,49,17.10
2018,04,25,10,50,17.10
2018,04,25,10,51,17.10
2018,04,25,10,52,17.20
2018,04,25,10,53,17.20
2018,04,25,10,54,17.40
2018,04,25,10,55,17.40
2018,04,25,10,56,17.40
2018,04,25,10,57,17.40
2018,04,25,10,58,17.40
2018,04,25,10,59,17.40
2018,04,25,11,00,17.40
2018,04,25,11,01,17.40
2018,04,25,11,02,17.40
2018,04,25,11,03,17.50
2018,04,25,11,04,17.50
2018,04,25,11,05,17.60
2018,04,25,11,06,17.60
2018,04,25,11,07,17.70
2018,04,25,11,08,17.70
2018,04,25,11,09,17.80
2018,04,25,11,10,17.80
2018,04,25,11,11,17.80
2018,04,25,11,12,17.80
2018,04,25,11,13,17.80
2018,04,25,11,14,17.80
2018,04,25,11,15,17.90
2018,04,25,11,16,17.90
2018,04,25,11,17,17.90
2018,04,25,11,18,17.90
2018,04,25,11,19,17.90
2018,04,25,11,20,17.90
2018,04,25,11,21,18.00
2018,04,25,11,22,18.00
2018,04,25,11,23,18.10
2018,04,25,11,24,18.10
2018,04,25,11,25,18.10
2018,04,25,11,26,18.10
2018,04,25,11,27,18.10
2018,04,25,11,28,18.10
2018,04,25,11,29,18.10
2018,04,25,11,30,18.20
2018,04,25,11,31,18.20
2018,04,25,11,32,18.20
2018,04,25,11,33,18.30
2018,04,25,11,34,18.30
2018,04,25,11,35,18.40
2018,04,25,11,36,18.40
2018,04,25,11,37,18.40
2018,04,25,11,38,18.40
2018,04,25,11,39,18.40
2018,04,25,11,40,18.40
2018,04,25,11,41,18.40
2018,04,25,11,42,18.40
2018,04,25,11,43,18.50
2018,04,25,11,44,18.50
2018,04,25,11,45,18.50
2018,04,25,11,46,18.60
2018,04,25,11,47,18.60
2018,04,25,11,48,18.70
2018,04,25,11,49,18.80
2018,04,25,11,50,18.90
2018,04,25,11,51,18.90
2018,04,25,11,52,18.90
2018,04,25,11,53,18.90
2018,04,25,11,54,18.90
2018,04,25,11,55,18.90
2018,04,25,11,56,18.90
2018,04,25,11,57,18.90
2018,04,25,11,58,18.90
2018,04,25,11,59,19.00
2018,04,25,12,00,19.00
2018,04,25,12,01,19.00
2018,04,25,12,02,19.00
2018,04,25,12,03,19.00
2018,04,25,12,04,19.00
2018,04,25,12,05,19.00
2018,04,25,12,06,19.10
2018,04,25,12,07,19.10
2018,04,25,12,08,19.10
2018,04,25,12,09,19.10
2018,04,25,12,10,19.20
2018,04,25,12,11,19.20
2018,04,25,12,12,19.20
2018,04,25,12,13,19.30
2018,04,25,12,14,19.30
2018,04,25,12,15,19.40
2018,04,25,12,16,19.50
2018,04,25,12,17,19.50
2018,04,25,12,18,19.60
2018,04,25,12,19,19.60
2018,04,25,12,20,19.60
2018,04,25,12,21,19.60
2018,04,25,12,22,19.60
2018,04,25,12,23,19.60
2018,04,25,12,24,19.60
2018,04,25,12,25,19.60
2018,04,25,12,26,19.60
2018,04,25,12,27,19.70
2018,04,25,12,28,19.70
2018,04,25,12,29,19.80
2018,04,25,12,30,19.90
2018,04,25,12,31,19.90
2018,04,25,12,32,19.90
2018,04,25,12,33,19.90
2018,04,25,12,34,19.90
2018,04,25,12,35,19.80
2018,04,25,12,36,19.80
2018,04,25,12,37,19.80
2018,04,25,12,38,19.80
2018,04,25,12,39,19.80
2018,04,25,12,40,19.80
2018,04,25,12,41,19.80
2018,04,25,12,42,19.70
2018,04,25,12,43,19.70
2018,04,25,12,44,19.70
2018,04,25,12,45,19.70
2018,04,25,12,46,19.70
2018,04,25,12,47,19.80
2018,04,25,12,48,19.80
2018,04,25,12,49,19.80
2018,04,25,12,50,19.80
2018,04,25,12,51,19.80
2018,04,25,12,52,19.80
2018,04,25,12,53,19.80
2018,04,25,12,54,19.80
2018,04,25,12,55,19.80
2018,04,25,12,56,19.90
2018,04,25,12,57,20.00
2018,04,25,12,58,20.10
2018,04,25,12,59,20.10
2018,04,25,13,00,20.20
2018,04,25,13,01,20.20
2018,04,25,13,02,20.30
2018,04,25,13,03,20.40
2018,04,25,13,04,20.40
2018,04,25,13,05,20.40
2018,04,25,13,06,20.50
2018,04,25,13,07,20.60
2018,04,25,13,08,20.60
2018,04,25,13,09,20.70
2018,04,25,13,10,20.70
2018,04,25,13,11,20.80
2018,04,25,13,12,20.90
2018,04,25,13,13,20.90
2018,04,25,13,14,21.00
2018,04,25,13,15,21.10
2018,04,25,13,16,21.00
2018,04,25,13,17,21.00
2018,04,25,13,18,21.00
2018,04,25,13,19,21.00
2018,04,25,13,20,21.10
2018,04,25,13,21,21.10
2018,04,25,13,22,21.10
2018,04,25,13,23,21.10
2018,04,25,13,24,21.10
2018,04,25,13,25,21.20
2018,04,25,13,26,21.20
2018,04,25,13,27,21.20
2018,04,25,13,28,21.20
2018,04,25,13,29,21.30
2018,04,25,13,30,21.30
2018,04,25,13,31,21.30
2018,04,25,13,32,21.20
2018,04,25,13,33,21.20
2018,04,25,13,34,21.20
2018,04,25,13,35,21.20
2018,04,25,13,36,21.10
2018,04,25,13,37,21.10
2018,04,25,13,38,21.20
2018,04,25,13,39,21.30
2018,04,25,13,40,21.40
2018,04,25,13,41,21.40
2018,04,25,13,42,21.40
2018,04,25,13,43,21.40
2018,04,25,13,44,21.40
2018,04,25,13,45,21.40
2018,04,25,13,46,21.40
2018,04,25,13,47,21.40
2018,04,25,13,48,21.50
2018,04,25,13,49,21.50
2018,04,25,13,50,21.60
2018,04,25,13,51,21.70
2018,04,25,13,52,21.80
2018,04,25,13,53,21.90
2018,04,25,13,54,22.00
2018,04,25,13,55,22.00
2018,04,25,13,56,22.10
2018,04,25,13,57,22.10
2018,04,25,13,58,22.00
2018,04,25,13,59,22.00
2018,04,25,14,00,22.10
2018,04,25,14,01,22.10
2018,04,25,14,02,22.20
2018,04,25,14,03,22.40
2018,04,25,14,04,22.50
2018,04,25,14,05,22.60
2018,04,25,14,06,22.70
2018,04,25,14,07,22.80
2018,04,25,14,08,22.80
2018,04,25,14,09,22.80
2018,04,25,14,10,22.90
2018,04,25,14,11,22.90
2018,04,25,14,12,23.00
2018,04,25,14,13,23.10
2018,04,25,14,14,23.20
2018,04,25,14,15,23.20
2018,04,25,14,16,23.20
2018,04,25,14,17,23.20
2018,04,25,14,18,23.10
2018,04,25,14,19,23.10
2018,04,25,14,20,23.10
2018,04,25,14,21,23.10
2018,04,25,14,22,23.20
2018,04,25,14,23,23.30
2018,04,25,14,24,23.30
2018,04,25,14,25,23.40
2018,04,25,14,26,23.40
2018,04,25,14,27,23.30
2018,04,25,14,28,23.30
2018,04,25,14,29,23.30
2018,04,25,14,30,23.30
2018,04,25,14,31,23.30
2018,04,25,14,32,23.30
2018,04,25,14,33,23.30
2018,04,25,14,34,23.30
2018,04,25,14,35,23.20
2018,04,25,14,36,23.20
2018,04,25,14,37,23.10
2018,04,25,14,38,23.10
2018,04,25,14,39,23.20
2018,04,25,14,40,23.20
2018,04,25,14,41,23.20
2018,04,25,14,42,23.10
2018,04,25,14,43,23.10
2018,04,25,14,44,23.10
2018,04,25,14,45,23.00
2018,04,25,14,46,23.00
2018,04,25,14,47,23.00
2018,04,25,14,48,23.00
2018,04,25,14,49,23.00
2018,04,25,14,50,23.10
2018,04,25,14,51,23.10
2018,04,25,14,52,23.20
2018,04,25,14,53,23.30
2018,04,25,14,54,23.30
2018,04,25,14,55,23.40
2018,04,25,14,56,23.40
2018,04,25,14,57,23.40
2018,04,25,14,58,23.30
2018,04,25,14,59,23.30
2018,04,25,15,00,23.40
2018,04,25,15,01,23.40
2018,04,25,15,02,23.40
2018,04,25,15,03,23.40
2018,04,25,15,04,23.40
2018,04,25,15,05,23.40
2018,04,25,15,06,23.40
2018,04,25,15,07,23.50
2018,04,25,15,08,23.40
2018,04,25,15,09,23.40
2018,04,25,15,10,23.40
2018,04,25,15,11,23.40
2018,04,25,15,12,23.40
2018,04,25,15,13,23.30
2018,04,25,15,14,23.30
2018,04,25,15,15,23.20
2018,04,25,15,16,23.20
2018,04,25,15,17,23.20
2018,04,25,15,18,23.10
2018,04,25,15,19,23.10
2018,04,25,15,20,23.10
2018,04,25,15,21,23.10
2018,04,25,15,22,23.10
2018,04,25,15,23,23.10
2018,04,25,15,24,23.10
2018,04,25,15,25,23.10
2018,04,25,15,26,23.20
2018,04,25,15,27,23.20
2018,04,25,15,28,23.20
2018,04,25,15,29,23.20
2018,04,25,15,30,23.30
2018,04,25,15,31,23.30
2018,04,25,15,32,23.40
2018,04,25,15,33,23.50
2018,04,25,15,34,23.60
2018,04,25,15,35,23.60
2018,04,25,15,36,23.60
2018,04,25,15,37,23.70
2018,04,25,15,38,23.70
2018,04,25,15,39,23.80
2018,04,25,15,40,23.80
2018,04,25,15,41,23.90
2018,04,25,15,42,23.90
2018,04,25,15,43,24.00
2018,04,25,15,44,24.20
2018,04,25,15,45,24.30
2018,04,25,15,46,24.40
2018,04,25,15,47,24.50
2018,04,25,15,48,24.60
2018,04,25,15,49,24.60
2018,04,25,15,50,24.70
2018,04,25,15,51,24.70
2018,04,25,15,52,24.80
2018,04,25,15,53,24.80
2018,04,25,15,54,24.80
2018,04,25,15,55,24.80
2018,04,25,15,56,24.80
2018,04,25,15,57,24.90
2018,04,25,15,58,24.90
2018,04,25,15,59,24.90
2018,04,25,16,00,24.90
2018,04,25,16,01,24.90
2018,04,25,16,02,24.90
2018,04,25,16,03,24.90
2018,04,25,16,04,24.90
2018,04,25,16,05,24.90
2018,04,25,16,06,24.90
2018,04,25,16,07,25.00
2018,04,25,16,08,25.00
2018,04,25,16,09,25.00
2018,04,25,16,10,24.90
2018,04,25,16,11,24.90
2018,04,25,16,12,24.70
2018,04,25,16,13,24.70
2018,04,25,16,14,24.70
2018,04,25,16,15,24.80
2018,04,25,16,16,24.90
2018,04,25,16,17,24.90
2018,04,25,16,18,24.90
2018,04,25,16,19,24.80
2018,04,25,16,20,24.80
2018,04,25,16,21,24.80
2018,04,25,16,22,24.80
2018,04,25,16,23,24.90
2018,04,25,16,24,24.90
2018,04,25,16,25,24.90
2018,04,25,16,26,24.90
2018,04,25,16,27,24.90
2018,04,25,16,28,24.90
2018,04,25,16,29,24.90
2018,04,25,16,30,24.90
2018,04,25,16,31,24.90
2018,04,25,16,32,25.00
2018,04,25,16,33,25.00
2018,04,25,16,34,25.10
2018,04,25,16,35,25.10
2018,04,25,16,36,25.20
2018,04,25,16,37,25.10
2018,04,25,16,38,25.10
2018,04,25,16,39,25.10
2018,04,25,16,40,25.00
2018,04,25,16,41,24.90
2018,04,25,16,42,24.90
2018,04,25,16,43,24.90
2018,04,25,16,44,24.90
2018,04,25,16,45,25.00
2018,04,25,16,46,25.10
2018,04,25,16,47,25.20
2018,04,25,16,48,25.20
2018,04,25,16,49,25.30
2018,04,25,16,50,25.30
2018,04,25,16,51,25.40
2018,04,25,16,52,25.40
2018,04,25,16,53,25.40
2018,04,25,16,54,25.40
2018,04,25,16,55,25.40
2018,04,25,16,56,25.40
2018,04,25,16,57,25.40
2018,04,25,16,58,25.40
2018,04,25,16,59,25.50
2018,04,25,17,00,25.50
2018,04,25,17,01,25.50
2018,04,25,17,02,25.40
2018,04,25,17,03,25.40
2018,04,25,17,04,25.30
2018,04,25,17,05,25.30
2018,04,25,17,06,25.30
2018,04,25,17,07,25.30
2018,04,25,17,08,25.30
2018,04,25,17,09,25.30
2018,04,25,17,10,25.30
2018,04,25,17,11,25.30
2018,04,25,17,12,25.30
2018,04,25,17,13,25.30
2018,04,25,17,14,25.40
2018,04,25,17,15,25.40
2018,04,25,17,16,25.40
2018,04,25,17,17,25.50
2018,04,25,17,18,25.50
2018,04,25,17,19,25.60
2018,04,25,17,20,25.60
2018,04,25,17,21,25.60
2018,04,25,17,22,25.60
2018,04,25,17,23,25.50
2018,04,25,17,24,25.40
2018,04,25,17,25,25.40
2018,04,25,17,26,25.30
2018,04,25,17,27,25.30
2018,04,25,17,28,25.30
2018,04,25,17,29,25.30